Voltar ao catálogo

STARLINK-34398

AtivoComunicaçõesVLEO
NORAD 64445·PAYLOAD·🇺🇸 United States

Lançado Jun 18, 2025 de Cape Canaveral Space Force Station

Loading…

Próximas Passagens (próximas 24 horas)

TLE

AtualizadoSource: CelesTrak SupGP

Época: Sep 15, 2026, 03:50 UTC

1 64445C 25130H   26258.16020833 -.00007315  00000+0 -21605-3 0  2582
2 64445  53.1565 287.0112 0001085 107.8277 209.1613 15.34406401    18

Acompanhe STARLINK-34398 em tempo real com AllMySat

Download on the App Store